EW5898 Weather Reports


time (UTC)temp
C
wind
direction
speed
KPH
gust
KPH
rain 1hr
cm
rain 24hr
cm
rain mn
cm
humidity
%
barometer
mb
20260504213919 24 296 6.4 9.7 0.00 0.00 0.00 53 1008.9
20260504213027 23 257 1.6 11.3 0.00 0.00 0.00 57 1009.3
20260504212926 24 279 6.4 11.3 0.00 0.00 0.00 54 1009.1
20260504212922 24 281 4.8 9.7 0.00 0.00 0.00 54 1009.1
20260504205919 23 254 4.8 11.3 0.00 0.00 0.00 61 1009.2
20260504204923 23 276 8.0 16.1 0.00 0.00 0.00 59 1009.4
20260504204919 23 282 6.4 11.3 0.00 0.00 0.00 57 1009.4
20260504202917 23 269 6.4 9.7 0.00 0.00 0.00 59 1009.5
20260504201917 22 257 8.0 11.3 0.00 0.00 0.00 59 1009.4
20260504200917 22 282 6.4 14.5 0.00 0.00 0.00 64 1009.5
20260504195916 22 302 8.0 11.3 0.00 0.00 0.00 60 1009.5
20260504194916 22 244 3.2 9.7 0.00 0.00 0.00 60 1009.6
20260504193916 22 251 6.4 11.3 0.00 0.00 0.00 58 1009.5
20260504192917 21 278 4.8 8.0 0.00 0.00 0.00 60 1009.6
20260504191915 21 269 4.8 9.7 0.00 0.00 0.00 61 1009.5
20260504190916 21 285 1.6 8.0 0.00 0.00 0.00 65 1009.6
20260504185915 21 286 3.2 11.3 0.00 0.00 0.00 68 1009.6
20260504184916 21 175 1.6 8.0 0.00 0.00 0.00 68 1009.6
20260504183914 21 290 4.8 9.7 0.00 0.00 0.00 65 1009.6
20260504182918 21 238 1.6 4.8 0.00 0.00 0.00 67 1009.7
20260504182914 21 257 3.2 6.4 0.00 0.00 0.00 64 1009.6
20260504180913 20 265 4.8 9.7 0.00 0.00 0.00 66 1009.7
20260504175913 20 235 1.6 6.4 0.00 0.00 0.00 69 1009.8
20260504174913 20 272 0.0 8.0 0.00 0.00 0.00 71 1009.8
20260504173910 20 285 3.2 9.7 0.00 0.00 0.00 71 1009.7
20260504172911 20 288 4.8 8.0 0.00 0.00 0.00 68 1009.7
20260504171915 19 269 0.0 4.8 0.00 0.00 0.00 68 1009.7
20260504171911 20 302 3.2 6.4 0.00 0.00 0.00 68 1009.7
20260504171021 18 252 1.6 6.4 0.00 0.00 0.00 73 1009.5
20260504171017 19 275 0.0 6.4 0.00 0.00 0.00 71 1009.7
20260504150907 16 340 0.0 1.6 0.00 0.00 0.00 77 1009.7
20260504140906 11 79 0.0 1.6 0.00 0.00 0.00 90 1009.0
20260504081858 11 79 0.0 3.2 0.00 0.00 0.00 91 1008.7
20260504081853 11 75 1.6 3.2 0.00 0.00 0.00 91 1008.7
20260504045851 14 76 0.0 1.6 0.00 0.00 0.00 80 1008.7
20260504045847 13 76 0.0 0.0 0.00 0.00 0.00 83 1008.8
20260504043848 15 326 0.0 0.0 0.00 0.00 0.00 77 1008.7
20260504042846 15 289 0.0 0.0 0.00 0.00 0.00 74 1008.6
20260504041846 15 275 0.0 4.8 0.00 0.00 0.00 74 1008.6
20260504040845 16 282 0.0 1.6 0.00 0.00 0.00 73 1008.7
20260504035846 16 275 0.0 3.2 0.00 0.00 0.00 70 1008.6
20260504034845 16 266 0.0 1.6 0.00 0.00 0.00 69 1008.5
20260504033849 17 278 0.0 1.6 0.00 0.00 0.00 65 1008.5
20260504033845 17 262 0.0 1.6 0.00 0.00 0.00 67 1008.5
20260504032950 18 259 0.0 3.2 0.00 0.00 0.00 64 1008.4
20260504030843 19 303 0.0 3.2 0.00 0.00 0.00 61 1008.4
20260504025842 19 279 0.0 4.8 0.00 0.00 0.00 60 1008.4
20260504024842 20 283 1.6 6.4 0.00 0.00 0.00 59 1008.5
20260504023847 20 261 6.4 11.3 0.00 0.00 0.00 57 1008.5
20260504023843 20 271 1.6 8.0 0.00 0.00 0.00 59 1008.5
20260504021841 20 296 6.4 11.3 0.00 0.00 0.00 55 1008.5
20260504020841 21 292 6.4 11.3 0.00 0.00 0.00 53 1008.6
20260504015841 21 261 4.8 8.0 0.00 0.00 0.00 56 1008.7
20260504014841 21 237 6.4 11.3 0.00 0.00 0.00 54 1008.7
20260504013840 20 254 6.4 14.5 0.00 0.00 0.00 57 1008.9
20260504012840 20 302 6.4 14.5 0.00 0.00 0.00 58 1008.9
20260504011947 22 271 1.6 11.3 0.00 0.00 0.00 59 1009.0
20260504011844 21 303 8.0 11.3 0.00 0.00 0.00 58 1009.1
20260504011840 21 306 8.0 14.5 0.00 0.00 0.00 61 1009.0
20260504004839 22 296 4.8 14.5 0.00 0.00 0.00 60 1009.2
20260504003844 21 279 6.4 14.5 0.00 0.00 0.00 60 1009.3
20260504003839 21 269 6.4 11.3 0.00 0.00 0.00 59 1009.2
20260504002943 22 281 6.4 14.5 0.00 0.00 0.00 59 1009.5
20260504000838 22 235 6.4 14.5 0.00 0.00 0.00 59 1009.6
20260503235838 21 244 8.0 14.5 0.00 0.00 0.00 59 1009.6
20260503234837 21 275 8.0 16.1 0.00 0.00 0.00 59 1009.8
20260503233837 21 274 8.0 17.7 0.00 0.00 0.00 60 1009.9
20260503232836 21 247 8.0 25.7 0.00 0.00 0.00 60 1010.0
20260503231836 21 265 8.0 17.7 0.00 0.00 0.00 63 1010.1
20260503230835 21 262 9.7 17.7 0.00 0.00 0.00 60 1010.3
20260503225835 21 231 9.7 24.1 0.00 0.00 0.00 59 1010.4
20260503224835 21 251 8.0 17.7 0.00 0.00 0.00 61 1010.5
20260503223834 21 313 9.7 22.5 0.00 0.00 0.00 63 1010.7
20260503222839 20 283 9.7 22.5 0.00 0.00 0.00 60 1011.1
20260503222834 20 313 11.3 24.1 0.00 0.00 0.00 62 1011.0
20260503221834 20 248 12.9 20.9 0.00 0.00 0.00 60 1011.1
20260503215833 21 262 9.7 20.9 0.00 0.00 0.00 58 1011.3